Location: Newark
(37.9717°N, 99.9089°W)
Time: 08:24:44
(UTC+00:00)

ISS - Visible Passes

Search period start: 22 July 2019 00:00
Search period end: 01 August 2019 00:00
Orbit: 409 x 418 km, 51.6° (Epoch: 22 July)

Date Brightness Start Highest point End Pass type
(mag) Time Alt. Az. Time Alt. Az. Time Alt. Az.
22 Jul -0.3 03:59:42 10° NNW 04:00:34 11° NNW 04:01:27 10° N visible
23 Jul -0.6 03:09:11 10° NW 03:11:00 14° NNW 03:12:50 10° NNE visible
23 Jul -0.2 06:24:57 10° NNW 06:25:12 11° N 06:25:12 11° N visible
24 Jul -0.4 05:36:16 10° N 05:37:12 11° NNE 05:37:12 11° NNE visible
26 Jul -0.5 05:33:23 10° NNW 05:34:14 14° N 05:34:14 14° N visible
27 Jul -0.9 04:44:28 10° N 04:46:10 13° NNE 04:46:23 13° NNE visible
28 Jul -0.7 03:55:53 10° N 03:56:31 10° NNE 03:57:09 10° NNE visible
28 Jul -0.5 05:30:53 10° NW 05:31:24 13° NNW 05:31:24 13° NNW visible
29 Jul -1.3 04:41:47 10° NNW 04:43:37 20° N 04:43:37 20° N visible
30 Jul -1.4 03:52:44 10° NNW 03:54:56 16° NNE 03:55:52 15° NE visible
30 Jul -0.3 05:28:39 10° NW 05:28:40 10° NW 05:28:40 10° NW visible
31 Jul -1.0 03:03:50 10° N 03:05:18 12° NNE 03:06:46 10° NE visible
31 Jul -1.5 04:39:19 10° NW 04:40:57 25° NNW 04:40:57 25° NNW visible
